Location: Silverdale
(47.6506°N, 122.6941°W)
Time: 01:08:32
(UTC+00:00)

A-11 Canister half - Pass Details

Date: 09 October 2022
Orbit: 1524 x 1685 km, 47.3° (Epoch: 05 December)

Event Time Altitude Azimuth Distance (km) Brightness Sun altitude
Rises 03:32:14 0° 289° (WNW) 4,690 13.1 -20.3°
Reaches altitude 10° 03:35:20 10° 285° (WNW) 3,717 12.2 -20.8°
Maximum altitude 03:44:18 53° 213° (SSW) 1,875 9.5 -22.3°
Enters shadow 03:50:12 24° 149° (SSE) 2,847 10.0 -23.3°
